This demonstration page uses our WeatherBlox Daily Observations layout. Learn more.

Left ArrowRight Arrow

40.92945, -100.16068

Hourly Observations for October 17, 2020

Temp ( °F °C ) Dew Point ( °F °C ) Humidity (%) Winds ( mph kmh ) Pressure ( in mb ) Visibility ( mi km ) Precip ( " mm )
12:15 am 00:15 Clear 53 11.9 28 -2.3 37 37 S 17 28 29.73 1007 10 16.0934 0 0
12:35 am 00:35 Clear 53 11.7 28 -2.2 38 38 S 20 31 29.73 1007 10 16.0934 0 0
12:55 am 00:55 Clear 52 11.2 28 -2.2 39 39 S 17 28 29.72 1006 10 16.0934 0 0
1:15 am 01:15 Clear 52 11 28 -2 41 41 S 18 30 29.72 1007 10 16.0934 0 0
1:35 am 01:35 Clear 52 11.2 29 -1.7 41 41 SSW 16 26 29.71 1006 10 16.0934 0 0
1:55 am 01:55 Clear 52 11.1 29 -1.6 42 42 SSW 14 22 29.7 1006 10 16.0934 0 0
2:15 am 02:15 Clear 52 11.1 29 -1.5 42 42 SSW 13 20 29.71 1006 10 16.0934 0 0
2:35 am 02:35 Clear 52 11 30 -1.1 43 43 SSW 8 13 29.71 1006 10 16.0934 0 0
2:55 am 02:55 Clear 53 11.4 31 -0.6 44 44 SSW 8 13 29.7 1006 10 16.0934 0 0
3:15 am 03:15 Clear 53 11.8 32 -0.2 44 44 WSW 5 7 29.69 1006 10 16.0934 0 0
3:35 am 03:35 Clear 53 11.5 32 -0.1 45 45 SW 7 11 29.71 1006 10 16.0934 0 0
3:55 am 03:55 Clear 51 10.7 32 -0.2 47 47 WSW 3 6 29.7 1006 10 16.0934 0 0
4:15 am 04:15 Clear 49 9.4 31 -0.4 51 51 W 7 11 29.73 1007 10 16.0934 0 0
4:35 am 04:35 Clear 45 7 30 -0.9 58 58 NW 9 15 29.77 1008 10 16.0934 0 0
4:55 am 04:55 Clear 43 6 30 -1.3 60 60 W 6 9 29.78 1008 10 16.0934 0 0
5:15 am 05:15 Clear 40 4.7 28 -2 62 62 WSW 6 9 29.79 1009 10 16.0934 0 0
5:35 am 05:35 Clear 40 4.4 29 -1.4 66 66 WSW 5 7 29.79 1009 10 16.0934 0 0
5:55 am 05:55 Clear 39 3.7 29 -1.8 68 68 W 5 7 29.81 1009 10 16.0934 0 0
6:15 am 06:15 Clear 37 2.7 28 -2 71 71 WNW 7 11 29.83 1010 10 16.0934 0 0
6:35 am 06:35 Clear 41 5 29 -1.5 63 63 WNW 9 15 29.81 1009 10 16.0934 0 0
6:55 am 06:55 Clear 40 4.7 28 -2 62 62 WNW 9 15 29.82 1010 10 16.0934 0 0
7:15 am 07:15 Clear 40 4.5 28 -2.1 63 63 WNW 10 17 29.82 1010 10 16.0934 0 0
7:35 am 07:35 Clear 40 4.4 28 -2.1 63 63 WNW 7 11 29.82 1010 10 16.0934 0 0
7:55 am 07:55 Sunny 41 4.8 28 -2 62 62 WNW 10 17 29.83 1010 10 16.0934 0 0
8:15 am 08:15 Sunny 40 4.6 28 -2 63 63 WNW 8 13 29.84 1011 10 16.0934 0 0
8:35 am 08:35 Sunny 42 5.3 29 -1.7 61 61 NW 10 17 29.84 1010 10 16.0934 0 0
8:55 am 08:55 Sunny 44 6.5 29 -1.5 57 57 WNW 9 15 29.83 1010 10 16.0934 0 0
9:15 am 09:15 Sunny 45 7.3 30 -1.3 55 55 WNW 8 13 29.84 1010 10 16.0934 0 0
9:35 am 09:35 Sunny 47 8.2 30 -1 53 53 WNW 9 15 29.83 1010 10 16.0934 0 0
9:55 am 09:55 Sunny 49 9.2 31 -0.8 50 50 WNW 8 13 29.82 1010 10 16.0934 0 0
10:15 am 10:15 Sunny 49 9.6 31 -0.8 49 49 WNW 9 15 29.82 1010 10 16.0934 0 0
10:35 am 10:35 Sunny 53 11.5 32 0 45 45 WNW 9 15 29.81 1009 10 16.0934 0 0
10:55 am 10:55 Sunny 56 13.1 33 0.4 42 42 WNW 8 13 29.79 1009 10 16.0934 0 0
11:15 am 11:15 Sunny 58 14.7 35 1.4 41 41 WNW 7 11 29.79 1009 10 16.0934 0 0
11:35 am 11:35 Sunny 62 16.7 36 2.4 38 38 NW 8 13 29.77 1008 10 16.0934 0 0
11:55 am 11:55 Mostly Cloudy 63 17.4 36 2.3 37 37 WNW 10 17 29.78 1008 10 16.0934 0 0
12:15 pm 12:15 Cloudy 64 17.8 37 2.9 37 37 W 10 17 29.78 1009 10 16.0934 0 0
12:35 pm 12:35 Mostly Cloudy 66 18.8 37 3 35 35 NW 10 17 29.77 1008 10 16.0934 0 0
12:55 pm 12:55 Partly Cloudy 66 19 38 3.6 36 36 NNW 13 20 29.77 1008 10 16.0934 0 0
1:15 pm 13:15 Partly Cloudy 67 19.4 39 3.7 36 36 NNW 14 22 29.76 1008 10 16.0934 0 0
1:35 pm 13:35 Sunny 67 19.7 38 3.6 35 35 N 16 26 29.75 1007 10 16.0934 0 0
1:55 pm 13:55 Sunny 67 19.5 38 3.6 35 35 N 13 20 29.74 1007 10 16.0934 0 0
2:15 pm 14:15 Sunny 68 20.2 39 3.7 34 34 N 13 20 29.74 1007 10 16.0934 0 0
2:35 pm 14:35 Sunny 68 19.9 38 3.4 34 34 N 10 17 29.73 1007 10 16.0934 0 0
2:55 pm 14:55 Sunny 69 20.4 39 3.7 33 33 NNE 12 19 29.74 1007 10 16.0934 0 0
3:15 pm 15:15 Sunny 68 20 39 3.8 34 34 N 10 17 29.74 1007 10 16.0934 0 0
3:35 pm 15:35 Sunny 67 19.6 40 4.4 37 37 N 16 26 29.76 1008 10 16.0934 0 0
3:55 pm 15:55 Sunny 67 19.3 40 4.5 38 38 N 10 17 29.76 1008 10 16.0934 0 0
4:15 pm 16:15 Sunny 65 18.1 40 4.7 41 41 NNE 16 26 29.78 1008 10 16.0934 0 0
4:35 pm 16:35 Sunny 66 18.9 41 4.8 40 40 NE 13 20 29.77 1008 10 16.0934 0 0
4:55 pm 16:55 Sunny 64 17.5 41 4.8 43 43 N 16 26 29.78 1009 10 16.0934 0 0
5:15 pm 17:15 Partly Cloudy 61 16.1 40 4.5 46 46 NNE 16 26 29.81 1009 10 16.0934 0 0
5:35 pm 17:35 Partly Cloudy 59 14.8 38 3.2 46 46 NNE 20 31 29.85 1011 10 16.0934 0 0
5:55 pm 17:55 Sunny 57 14.1 37 2.9 47 47 NNE 23 37 29.86 1011 10 16.0934 0 0
6:15 pm 18:15 Partly Cloudy 55 12.5 37 2.6 51 51 NNE 15 24 29.88 1012 10 16.0934 0 0
6:35 pm 18:35 Mostly Cloudy 53 11.7 36 2.4 53 53 NNE 18 30 29.91 1013 10 16.0934 0 0
6:55 pm 18:55 Cloudy 52 11 36 2 54 54 NNE 18 30 29.93 1014 10 16.0934 0 0
7:15 pm 19:15 Mostly Cloudy 50 10.2 35 1.8 56 56 NNE 17 28 29.96 1015 10 16.0934 0 0
7:35 pm 19:35 Mostly Cloudy 49 9.7 34 1.3 56 56 NNE 17 28 29.98 1015 10 16.0934 0 0
7:55 pm 19:55 Mostly Cloudy 48 9 34 1 58 58 NNE 17 28 29.99 1016 10 16.0934 0 0
8:15 pm 20:15 Cloudy 47 8.5 34 1 60 60 NNE 17 28 30.01 1016 10 16.0934 0 0
8:35 pm 20:35 Partly Cloudy 46 7.7 34 0.9 62 62 NNE 16 26 30.02 1017 10 16.0934 0 0
8:55 pm 20:55 Partly Cloudy 45 7.1 33 0.6 64 64 NNE 17 28 30.02 1017 10 16.0934 0 0
9:15 pm 21:15 Clear 44 6.5 33 0.5 66 66 NNE 14 22 30.03 1017 10 16.0934 0 0
9:35 pm 21:35 Partly Cloudy 43 6.2 34 1 70 70 NNE 15 24 30.06 1018 10 16.0934 0 0
9:55 pm 21:55 Partly Cloudy 43 6.1 35 1.4 72 72 NNE 16 26 30.07 1018 10 16.0934 0 0
10:15 pm 22:15 Cloudy 43 6 35 1.6 74 74 NNE 16 26 30.08 1019 10 16.0934 0 0
10:35 pm 22:35 Cloudy 42 5.3 35 1.6 77 77 NNE 17 28 30.11 1019 10 16.0934 0 0
10:55 pm 22:55 Cloudy 40 4.7 35 1.4 79 79 NE 18 30 30.12 1020 10 16.0934 0 0
11:15 pm 23:15 Cloudy with Light Rain 40 4.4 35 1.7 83 83 NNE 15 24 30.12 1020 10 16.0934 0 0
11:35 pm 23:35 Cloudy with Light Rain 39 3.8 34 1.3 84 84 NNE 16 26 30.16 1021 10 16.0934 0 0
11:55 pm 23:55 Cloudy with Light Rain 38 3.6 35 1.5 86 86 N 10 17 30.19 1022 10 16.0934 0 0

Powered by AerisWeather